Regional Weather Roundup
Issued by NWS Sioux Falls, SD

Home | Current Version | Previous Version | Text Only | Print | Product List | Glossary On
Versions: 1 2 3 4 5 6 7 8 9 10 11 12 13 14 15 16 17 18 19 20 21 22 23 24 25 26 27 28 29 30 31 32 33 34 35 36 37 38 39 40 41 42 43 44 45 46 47 48 49 50
000
ASUS43 KFSD 051910
RWRFSD

WEATHER ROUNDUP FOR SE SOUTH DAKOTA/SW MINNESOTA/NW IOWA
NATIONAL WEATHER SERVICE SIOUX FALLS SD
100 PM CST MON DEC 05 2016

NOTE: "FAIR" INDICATES FEW OR NO CLOUDS BELOW 12,000 FEET WITH NO
SIGNIFICANT WEATHER AND OR OBSTRUCTIONS TO VISIBILITY.


SDZ038>040-050-052>070-052000-
SOUTHEAST SOUTH DAKOTA

CITY           SKY/WX    TMP DP  RH WIND       PRES   REMARKS
BROOKINGS      MOSUNNY   38  32  79 S15       29.45F
CHAMBERLAIN    MOSUNNY   39  32  75 W28G33    29.52S
HURON          SUNNY     43  31  62 SW8       29.45F
MADISON        FAIR      41  36  81 S20G26    29.46F
MITCHELL       MOSUNNY   46  32  58 SW10      29.46F
SIOUX FALLS    MOSUNNY   45  34  65 S17G24    29.50F
WINNER         MOCLDY    39  30  70 NW30G40   29.55R
YANKTON        MOSUNNY   45  28  53 S20       29.49F
$$

MNZ071-072-080-081-089-090-097-098-052000-
SOUTHWEST MINNESOTA

CITY           SKY/WX    TMP DP  RH WIND       PRES   REMARKS
FAIRMONT       PTSUNNY   43  35  73 S22       29.60F
JACKSON        PTSUNNY   43  32  65 S23       29.58F
LUVERNE        MOSUNNY   41  32  70 S24       29.52F
MARSHALL       CLOUDY    41  32  70 S13       29.52F
MONTEVIDEO     DRIZZLE   36  34  93 S8        29.54F
PIPESTONE      MOSUNNY   41  36  81 S18       29.48F
REDWOOD FALLS  CLOUDY    38  32  79 SE10      29.57F
TRACY          CLOUDY    41  34  76 S12G17    29.52F
WINDOM         CLOUDY    45  34  65 S15G25    29.55F
WORTHINGTON    CLOUDY    42  33  70 S21       29.52F
$$

IAZ001>003-012>014-020>022-031-032-NEZ013-014-SDZ071-052000-
NORTHWEST IOWA

CITY           SKY/WX    TMP DP  RH WIND       PRES   REMARKS
CHEROKEE       CLOUDY    46  34  63 S20G32    29.59F
DENISON        PTSUNNY   45  34  65 S22G31    29.62F
ESTHERVILLE    CLOUDY    44  36  73 S29G36    29.59F
LE MARS        CLOUDY    43  34  70 S25G36    29.54F
ORANGE CITY    CLOUDY    43  34  70 S26G37    29.50F
SHELDON        CLOUDY    45  36  70 S26G35    29.51F
SIOUX CITY     CLOUDY    46  34  62 S21G29    29.59F
SPENCER        MOSUNNY   47  34  60 S31G40    29.58F
STORM LAKE       N/A     45  36  70 S22G31    29.62S
$$

ABBREVIATIONS USED IN REMARKS
   TC - TEMPERATURE IN CELSIUS
  WCI - WIND CHILL INDEX
   HX - HEAT INDEX
  VSB - VISIBILITY





USA.gov is the U.S. government's official web portal to all federal, state and local government web resources and services.